Year,Month,Day,Hour,Minute,Value (Times are PST for temperature in C)
2006,09,26,00,00,12.30
2006,09,26,00,01,12.30
2006,09,26,00,02,12.30
2006,09,26,00,03,12.30
2006,09,26,00,04,12.30
2006,09,26,00,05,12.30
2006,09,26,00,06,12.30
2006,09,26,00,07,12.30
2006,09,26,00,08,12.30
2006,09,26,00,09,12.30
2006,09,26,00,10,12.30
2006,09,26,00,11,12.30
2006,09,26,00,12,12.30
2006,09,26,00,13,12.30
2006,09,26,00,14,12.30
2006,09,26,00,15,12.30
2006,09,26,00,16,12.30
2006,09,26,00,17,12.30
2006,09,26,00,18,12.30
2006,09,26,00,19,12.30
2006,09,26,00,20,12.30
2006,09,26,00,21,12.30
2006,09,26,00,22,12.20
2006,09,26,00,23,12.20
2006,09,26,00,24,12.20
2006,09,26,00,25,12.20
2006,09,26,00,26,12.20
2006,09,26,00,27,12.30
2006,09,26,00,28,12.20
2006,09,26,00,29,12.20
2006,09,26,00,30,12.20
2006,09,26,00,31,12.10
2006,09,26,00,32,12.10
2006,09,26,00,33,12.10
2006,09,26,00,34,12.10
2006,09,26,00,35,12.00
2006,09,26,00,36,12.00
2006,09,26,00,37,12.00
2006,09,26,00,38,11.90
2006,09,26,00,39,11.90
2006,09,26,00,40,11.90
2006,09,26,00,41,11.90
2006,09,26,00,42,11.90
2006,09,26,00,43,11.80
2006,09,26,00,44,11.80
2006,09,26,00,45,11.80
2006,09,26,00,46,11.80
2006,09,26,00,47,11.80
2006,09,26,00,48,11.80
2006,09,26,00,49,11.80
2006,09,26,00,50,11.80
2006,09,26,00,51,11.80
2006,09,26,00,52,11.80
2006,09,26,00,53,11.80
2006,09,26,00,54,11.80
2006,09,26,00,55,11.80
2006,09,26,00,56,11.70
2006,09,26,00,57,11.70
2006,09,26,00,58,11.70
2006,09,26,00,59,11.70
2006,09,26,01,00,11.70
2006,09,26,01,01,11.60
2006,09,26,01,02,11.60
2006,09,26,01,03,11.60
2006,09,26,01,04,11.60
2006,09,26,01,05,11.60
2006,09,26,01,06,11.50
2006,09,26,01,07,11.50
2006,09,26,01,08,11.50
2006,09,26,01,09,11.50
2006,09,26,01,10,11.50
2006,09,26,01,11,11.50
2006,09,26,01,12,11.50
2006,09,26,01,13,11.60
2006,09,26,01,14,11.60
2006,09,26,01,15,11.60
2006,09,26,01,16,11.60
2006,09,26,01,17,11.60
2006,09,26,01,18,11.60
2006,09,26,01,19,11.60
2006,09,26,01,20,11.50
2006,09,26,01,21,11.50
2006,09,26,01,22,11.50
2006,09,26,01,23,11.50
2006,09,26,01,24,11.50
2006,09,26,01,25,11.50
2006,09,26,01,26,11.50
2006,09,26,01,27,11.50
2006,09,26,01,28,11.50
2006,09,26,01,29,11.60
2006,09,26,01,30,11.60
2006,09,26,01,31,11.60
2006,09,26,01,32,11.60
2006,09,26,01,33,11.60
2006,09,26,01,34,11.60
2006,09,26,01,35,11.60
2006,09,26,01,36,11.60
2006,09,26,01,37,11.60
2006,09,26,01,38,11.60
2006,09,26,01,39,11.60
2006,09,26,01,40,11.60
2006,09,26,01,41,11.50
2006,09,26,01,42,11.50
2006,09,26,01,43,11.50
2006,09,26,01,44,11.50
2006,09,26,01,45,11.50
2006,09,26,01,46,11.40
2006,09,26,01,47,11.40
2006,09,26,01,48,11.40
2006,09,26,01,49,11.40
2006,09,26,01,50,11.30
2006,09,26,01,51,11.30
2006,09,26,01,52,11.30
2006,09,26,01,53,11.30
2006,09,26,01,54,11.30
2006,09,26,01,55,11.30
2006,09,26,01,56,11.30
2006,09,26,01,57,11.30
2006,09,26,01,58,11.30
2006,09,26,01,59,11.30
2006,09,26,02,00,11.20
2006,09,26,02,01,11.20
2006,09,26,02,02,11.20
2006,09,26,02,03,11.20
2006,09,26,02,04,11.20
2006,09,26,02,05,11.20
2006,09,26,02,06,11.20
2006,09,26,02,07,11.20
2006,09,26,02,08,11.10
2006,09,26,02,09,11.10
2006,09,26,02,10,11.10
2006,09,26,02,11,11.10
2006,09,26,02,12,11.10
2006,09,26,02,13,11.10
2006,09,26,02,14,11.10
2006,09,26,02,15,11.10
2006,09,26,02,16,11.10
2006,09,26,02,17,11.10
2006,09,26,02,18,11.10
2006,09,26,02,19,11.00
2006,09,26,02,20,11.10
2006,09,26,02,21,11.10
2006,09,26,02,22,11.10
2006,09,26,02,23,11.10
2006,09,26,02,24,11.00
2006,09,26,02,25,11.00
2006,09,26,02,26,11.00
2006,09,26,02,27,11.00
2006,09,26,02,28,11.00
2006,09,26,02,29,11.00
2006,09,26,02,30,11.00
2006,09,26,02,31,11.00
2006,09,26,02,32,11.00
2006,09,26,02,33,11.00
2006,09,26,02,34,11.00
2006,09,26,02,35,11.00
2006,09,26,02,36,11.00
2006,09,26,02,37,10.90
2006,09,26,02,38,10.90
2006,09,26,02,39,10.90
2006,09,26,02,40,10.90
2006,09,26,02,41,10.90
2006,09,26,02,42,10.90
2006,09,26,02,43,10.80
2006,09,26,02,44,10.80
2006,09,26,02,45,10.80
2006,09,26,02,46,10.80
2006,09,26,02,47,10.80
2006,09,26,02,48,10.80
2006,09,26,02,49,10.80
2006,09,26,02,50,10.80
2006,09,26,02,51,10.80
2006,09,26,02,52,10.80
2006,09,26,02,53,10.80
2006,09,26,02,54,10.80
2006,09,26,02,55,10.80
2006,09,26,02,56,10.80
2006,09,26,02,57,10.80
2006,09,26,02,58,10.80
2006,09,26,02,59,10.80
2006,09,26,03,00,10.80
2006,09,26,03,01,10.80
2006,09,26,03,02,10.70
2006,09,26,03,03,10.70
2006,09,26,03,04,10.70
2006,09,26,03,05,10.70
2006,09,26,03,06,10.70
2006,09,26,03,07,10.70
2006,09,26,03,08,10.60
2006,09,26,03,09,10.60
2006,09,26,03,10,10.60
2006,09,26,03,11,10.60
2006,09,26,03,12,10.60
2006,09,26,03,13,10.60
2006,09,26,03,14,10.60
2006,09,26,03,15,10.60
2006,09,26,03,16,10.60
2006,09,26,03,17,10.60
2006,09,26,03,18,10.60
2006,09,26,03,19,10.60
2006,09,26,03,20,10.50
2006,09,26,03,21,10.50
2006,09,26,03,22,10.50
2006,09,26,03,23,10.50
2006,09,26,03,24,10.50
2006,09,26,03,25,10.50
2006,09,26,03,26,10.50
2006,09,26,03,27,10.40
2006,09,26,03,28,10.40
2006,09,26,03,29,10.40
2006,09,26,03,30,10.40
2006,09,26,03,31,10.40
2006,09,26,03,32,10.40
2006,09,26,03,33,10.40
2006,09,26,03,34,10.40
2006,09,26,03,35,10.40
2006,09,26,03,36,10.30
2006,09,26,03,37,10.30
2006,09,26,03,38,10.40
2006,09,26,03,39,10.40
2006,09,26,03,40,10.40
2006,09,26,03,41,10.40
2006,09,26,03,42,10.40
2006,09,26,03,43,10.40
2006,09,26,03,44,10.40
2006,09,26,03,45,10.40
2006,09,26,03,46,10.40
2006,09,26,03,47,10.40
2006,09,26,03,48,10.40
2006,09,26,03,49,10.40
2006,09,26,03,50,10.40
2006,09,26,03,51,10.40
2006,09,26,03,52,10.40
2006,09,26,03,53,10.40
2006,09,26,03,54,10.40
2006,09,26,03,55,10.40
2006,09,26,03,56,10.50
2006,09,26,03,57,10.50
2006,09,26,03,58,10.60
2006,09,26,03,59,10.60
2006,09,26,04,00,10.60
2006,09,26,04,01,10.60
2006,09,26,04,02,10.60
2006,09,26,04,03,10.60
2006,09,26,04,04,10.60
2006,09,26,04,05,10.60
2006,09,26,04,06,10.50
2006,09,26,04,07,10.50
2006,09,26,04,08,10.50
2006,09,26,04,09,10.50
2006,09,26,04,10,10.50
2006,09,26,04,11,10.50
2006,09,26,04,12,10.50
2006,09,26,04,13,10.50
2006,09,26,04,14,10.60
2006,09,26,04,15,10.60
2006,09,26,04,16,10.50
2006,09,26,04,17,10.50
2006,09,26,04,18,10.50
2006,09,26,04,19,10.50
2006,09,26,04,20,10.50
2006,09,26,04,21,10.50
2006,09,26,04,22,10.50
2006,09,26,04,23,10.50
2006,09,26,04,24,10.50
2006,09,26,04,25,10.50
2006,09,26,04,26,10.50
2006,09,26,04,27,10.50
2006,09,26,04,28,10.50
2006,09,26,04,29,10.50
2006,09,26,04,30,10.60
2006,09,26,04,31,10.80
2006,09,26,04,32,10.90
2006,09,26,04,33,11.00
2006,09,26,04,34,11.20
2006,09,26,04,35,11.20
2006,09,26,04,36,11.30
2006,09,26,04,37,11.30
2006,09,26,04,38,11.40
2006,09,26,04,39,11.40
2006,09,26,04,40,11.50
2006,09,26,04,41,11.50
2006,09,26,04,42,11.60
2006,09,26,04,43,11.60
2006,09,26,04,44,11.70
2006,09,26,04,45,11.70
2006,09,26,04,46,11.80
2006,09,26,04,47,11.80
2006,09,26,04,48,11.80
2006,09,26,04,49,11.80
2006,09,26,04,50,11.80
2006,09,26,04,51,11.90
2006,09,26,04,52,11.90
2006,09,26,04,53,11.90
2006,09,26,04,54,11.90
2006,09,26,04,55,11.90
2006,09,26,04,56,11.90
2006,09,26,04,57,11.90
2006,09,26,04,58,11.90
2006,09,26,04,59,11.80
2006,09,26,05,00,11.80
2006,09,26,05,01,11.80
2006,09,26,05,02,11.80
2006,09,26,05,03,11.70
2006,09,26,05,04,11.70
2006,09,26,05,05,11.60
2006,09,26,05,06,11.60
2006,09,26,05,07,11.60
2006,09,26,05,08,11.50
2006,09,26,05,09,11.50
2006,09,26,05,10,11.50
2006,09,26,05,11,11.50
2006,09,26,05,12,11.40
2006,09,26,05,13,11.40
2006,09,26,05,14,11.40
2006,09,26,05,15,11.40
2006,09,26,05,16,11.40
2006,09,26,05,17,11.30
2006,09,26,05,18,11.30
2006,09,26,05,19,11.30
2006,09,26,05,20,11.30
2006,09,26,05,21,11.30
2006,09,26,05,22,11.30
2006,09,26,05,23,11.30
2006,09,26,05,24,11.30
2006,09,26,05,25,11.30
2006,09,26,05,26,11.40
2006,09,26,05,27,11.40
2006,09,26,05,28,11.40
2006,09,26,05,29,11.40
2006,09,26,05,30,11.40
2006,09,26,05,31,11.40
2006,09,26,05,32,11.40
2006,09,26,05,33,11.40
2006,09,26,05,34,11.40
2006,09,26,05,35,11.30
2006,09,26,05,36,11.30
2006,09,26,05,37,11.20
2006,09,26,05,38,11.20
2006,09,26,05,39,11.10
2006,09,26,05,40,11.10
2006,09,26,05,41,11.10
2006,09,26,05,42,11.00
2006,09,26,05,43,11.00
2006,09,26,05,44,10.90
2006,09,26,05,45,10.90
2006,09,26,05,46,10.80
2006,09,26,05,47,10.80
2006,09,26,05,48,10.80
2006,09,26,05,49,10.80
2006,09,26,05,50,10.70
2006,09,26,05,51,10.70
2006,09,26,05,52,10.70
2006,09,26,05,53,10.70
2006,09,26,05,54,10.60
2006,09,26,05,55,10.60
2006,09,26,05,56,10.60
2006,09,26,05,57,10.50
2006,09,26,05,58,10.50
2006,09,26,05,59,10.50
2006,09,26,06,00,10.50
2006,09,26,06,01,10.50
2006,09,26,06,02,10.40
2006,09,26,06,03,10.40
2006,09,26,06,04,10.40
2006,09,26,06,05,10.40
2006,09,26,06,06,10.40
2006,09,26,06,07,10.40
2006,09,26,06,08,10.40
2006,09,26,06,09,10.40
2006,09,26,06,10,10.40
2006,09,26,06,11,10.40
2006,09,26,06,12,10.40
2006,09,26,06,13,10.40
2006,09,26,06,14,10.30
2006,09,26,06,15,10.30
2006,09,26,06,16,10.30
2006,09,26,06,17,10.30
2006,09,26,06,18,10.30
2006,09,26,06,19,10.30
2006,09,26,06,20,10.20
2006,09,26,06,21,10.20
2006,09,26,06,22,10.20
2006,09,26,06,23,10.30
2006,09,26,06,24,10.30
2006,09,26,06,25,10.30
2006,09,26,06,26,10.30
2006,09,26,06,27,10.30
2006,09,26,06,28,10.20
2006,09,26,06,29,10.20
2006,09,26,06,30,10.20
2006,09,26,06,31,10.20
2006,09,26,06,32,10.20
2006,09,26,06,33,10.20
2006,09,26,06,34,10.20
2006,09,26,06,35,10.20
2006,09,26,06,36,10.20
2006,09,26,06,37,10.20
2006,09,26,06,38,10.20
2006,09,26,06,39,10.20
2006,09,26,06,40,10.20
2006,09,26,06,41,10.20
2006,09,26,06,42,10.20
2006,09,26,06,43,10.20
2006,09,26,06,44,10.20
2006,09,26,06,45,10.20
2006,09,26,06,46,10.20
2006,09,26,06,47,10.10
2006,09,26,06,48,10.10
2006,09,26,06,49,10.10
2006,09,26,06,50,10.10
2006,09,26,06,51,10.10
2006,09,26,06,52,10.10
2006,09,26,06,53,10.10
2006,09,26,06,54,10.10
2006,09,26,06,55,10.10
2006,09,26,06,56,10.00
2006,09,26,06,57,10.00
2006,09,26,06,58,10.00
2006,09,26,06,59,10.00
2006,09,26,07,00,9.90
2006,09,26,07,01,9.90
2006,09,26,07,02,9.90
2006,09,26,07,03,9.90
2006,09,26,07,04,9.90
2006,09,26,07,05,9.90
2006,09,26,07,06,10.00
2006,09,26,07,07,10.00
2006,09,26,07,08,10.00
2006,09,26,07,09,10.00
2006,09,26,07,10,10.00
2006,09,26,07,11,10.00
2006,09,26,07,12,10.10
2006,09,26,07,13,10.10
2006,09,26,07,14,10.00
2006,09,26,07,15,10.00
2006,09,26,07,16,10.00
2006,09,26,07,17,9.90
2006,09,26,07,18,9.90
2006,09,26,07,19,9.90
2006,09,26,07,20,9.90
2006,09,26,07,21,9.90
2006,09,26,07,22,10.00
2006,09,26,07,23,10.00
2006,09,26,07,24,10.00
2006,09,26,07,25,10.10
2006,09,26,07,26,10.10
2006,09,26,07,27,10.10
2006,09,26,07,28,10.00
2006,09,26,07,29,10.00
2006,09,26,07,30,10.00
2006,09,26,07,31,10.00
2006,09,26,07,32,10.00
2006,09,26,07,33,10.00
2006,09,26,07,34,10.00
2006,09,26,07,35,10.00
2006,09,26,07,36,10.10
2006,09,26,07,37,10.10
2006,09,26,07,38,10.10
2006,09,26,07,39,10.20
2006,09,26,07,40,10.20
2006,09,26,07,41,10.20
2006,09,26,07,42,10.30
2006,09,26,07,43,10.30
2006,09,26,07,44,10.40
2006,09,26,07,45,10.50
2006,09,26,07,46,10.50
2006,09,26,07,47,10.60
2006,09,26,07,48,10.60
2006,09,26,07,49,10.70
2006,09,26,07,50,10.80
2006,09,26,07,51,10.80
2006,09,26,07,52,10.80
2006,09,26,07,53,10.80
2006,09,26,07,54,10.90
2006,09,26,07,55,10.90
2006,09,26,07,56,10.90
2006,09,26,07,57,11.00
2006,09,26,07,58,11.00
2006,09,26,07,59,11.10
2006,09,26,08,00,11.10
2006,09,26,08,01,11.20
2006,09,26,08,02,11.30
2006,09,26,08,03,11.40
2006,09,26,08,04,11.50
2006,09,26,08,05,11.50
2006,09,26,08,06,11.60
2006,09,26,08,07,11.70
2006,09,26,08,08,11.80
2006,09,26,08,09,11.90
2006,09,26,08,10,12.00
2006,09,26,08,11,12.00
2006,09,26,08,12,12.10
2006,09,26,08,13,12.20
2006,09,26,08,14,12.20
2006,09,26,08,15,12.20
2006,09,26,08,16,12.30
2006,09,26,08,17,12.30
2006,09,26,08,18,12.40
2006,09,26,08,19,12.50
2006,09,26,08,20,12.60
2006,09,26,08,21,12.70
2006,09,26,08,22,12.80
2006,09,26,08,23,12.90
2006,09,26,08,24,13.00
2006,09,26,08,25,13.10
2006,09,26,08,26,13.20
2006,09,26,08,27,13.20
2006,09,26,08,28,13.30
2006,09,26,08,29,13.40
2006,09,26,08,30,13.60
2006,09,26,08,31,13.70
2006,09,26,08,32,13.80
2006,09,26,08,33,13.90
2006,09,26,08,34,14.10
2006,09,26,08,35,14.20
2006,09,26,08,36,14.30
2006,09,26,08,37,14.40
2006,09,26,08,38,14.50
2006,09,26,08,39,14.60
2006,09,26,08,40,14.70
2006,09,26,08,41,14.80
2006,09,26,08,42,14.80
2006,09,26,08,43,14.90
2006,09,26,08,44,14.90
2006,09,26,08,45,15.00
2006,09,26,08,46,15.00
2006,09,26,08,47,15.00
2006,09,26,08,48,15.00
2006,09,26,08,49,15.00
2006,09,26,08,50,15.00
2006,09,26,08,51,15.00
2006,09,26,08,52,15.00
2006,09,26,08,53,15.00
2006,09,26,08,54,15.00
2006,09,26,08,55,15.00
2006,09,26,08,56,15.00
2006,09,26,08,57,15.00
2006,09,26,08,58,15.00
2006,09,26,08,59,15.00
2006,09,26,09,00,15.00
2006,09,26,09,01,15.00
2006,09,26,09,02,15.00
2006,09,26,09,03,15.00
2006,09,26,09,04,15.00
2006,09,26,09,05,15.00
2006,09,26,09,06,15.00
2006,09,26,09,07,15.00
2006,09,26,09,08,15.00
2006,09,26,09,09,15.00
2006,09,26,09,10,15.00
2006,09,26,09,11,15.00
2006,09,26,09,12,15.00
2006,09,26,09,13,15.00
2006,09,26,09,14,15.00
2006,09,26,09,15,15.00
2006,09,26,09,16,15.00
2006,09,26,09,17,15.00
2006,09,26,09,18,15.00
2006,09,26,09,19,15.10
2006,09,26,09,20,15.20
2006,09,26,09,21,15.20
2006,09,26,09,22,15.30
2006,09,26,09,23,15.30
2006,09,26,09,24,15.30
2006,09,26,09,25,15.40
2006,09,26,09,26,15.40
2006,09,26,09,27,15.50
2006,09,26,09,28,15.50
2006,09,26,09,29,15.50
2006,09,26,09,30,15.60
2006,09,26,09,31,15.60
2006,09,26,09,32,15.60
2006,09,26,09,33,15.60
2006,09,26,09,34,15.70
2006,09,26,09,35,15.70
2006,09,26,09,36,15.70
2006,09,26,09,37,15.70
2006,09,26,09,38,15.70
2006,09,26,09,39,15.70
2006,09,26,09,40,15.60
2006,09,26,09,41,15.60
2006,09,26,09,42,15.70
2006,09,26,09,43,15.70
2006,09,26,09,44,15.70
2006,09,26,09,45,15.70
2006,09,26,09,46,15.70
2006,09,26,09,47,15.70
2006,09,26,09,48,15.60
2006,09,26,09,49,15.60
2006,09,26,09,50,15.60
2006,09,26,09,51,15.50
2006,09,26,09,52,15.50
2006,09,26,09,53,15.50
2006,09,26,09,54,15.50
2006,09,26,09,55,15.60
2006,09,26,09,56,15.60
2006,09,26,09,57,15.70
2006,09,26,09,58,15.70
2006,09,26,09,59,15.70
2006,09,26,10,00,15.70
2006,09,26,10,01,15.70
2006,09,26,10,02,15.70
2006,09,26,10,03,15.70
2006,09,26,10,04,15.70
2006,09,26,10,05,15.70
2006,09,26,10,06,15.80
2006,09,26,10,07,15.80
2006,09,26,10,08,15.80
2006,09,26,10,09,15.80
2006,09,26,10,10,15.90
2006,09,26,10,11,16.00
2006,09,26,10,12,16.00
2006,09,26,10,13,16.10
2006,09,26,10,14,16.20
2006,09,26,10,15,16.20
2006,09,26,10,16,16.30
2006,09,26,10,17,16.30
2006,09,26,10,18,16.30
2006,09,26,10,19,16.30
2006,09,26,10,20,16.30
2006,09,26,10,21,16.40
2006,09,26,10,22,16.40
2006,09,26,10,23,16.40
2006,09,26,10,24,16.50
2006,09,26,10,25,16.50
2006,09,26,10,26,16.60
2006,09,26,10,27,16.60
2006,09,26,10,28,16.60
2006,09,26,10,29,16.60
2006,09,26,10,30,16.60
2006,09,26,10,31,16.50
2006,09,26,10,32,16.60
2006,09,26,10,33,16.60
2006,09,26,10,34,16.60
2006,09,26,10,35,16.50
2006,09,26,10,36,16.50
2006,09,26,10,37,16.50
2006,09,26,10,38,16.60
2006,09,26,10,39,16.60
2006,09,26,10,40,16.60
2006,09,26,10,41,16.60
2006,09,26,10,42,16.60
2006,09,26,10,43,16.60
2006,09,26,10,44,16.50
2006,09,26,10,45,16.50
2006,09,26,10,46,16.60
2006,09,26,10,47,16.60
2006,09,26,10,48,16.70
2006,09,26,10,49,16.70
2006,09,26,10,50,16.70
2006,09,26,10,51,16.70
2006,09,26,10,52,16.80
2006,09,26,10,53,16.80
2006,09,26,10,54,16.80
2006,09,26,10,55,16.70
2006,09,26,10,56,16.70
2006,09,26,10,57,16.60
2006,09,26,10,58,16.60
2006,09,26,10,59,16.70
2006,09,26,11,00,16.70
2006,09,26,11,01,16.70
2006,09,26,11,02,16.80
2006,09,26,11,03,16.80
2006,09,26,11,04,16.80
2006,09,26,11,05,16.80
2006,09,26,11,06,16.80
2006,09,26,11,07,16.90
2006,09,26,11,08,16.80
2006,09,26,11,09,16.80
2006,09,26,11,10,16.80
2006,09,26,11,11,16.90
2006,09,26,11,12,16.80
2006,09,26,11,13,16.80
2006,09,26,11,14,16.90
2006,09,26,11,15,16.90
2006,09,26,11,16,16.90
2006,09,26,11,17,16.90
2006,09,26,11,18,17.00
2006,09,26,11,19,17.10
2006,09,26,11,20,17.20
2006,09,26,11,21,17.30
2006,09,26,11,22,17.30
2006,09,26,11,23,17.40
2006,09,26,11,24,17.40
2006,09,26,11,25,17.40
2006,09,26,11,26,17.30
2006,09,26,11,27,17.30
2006,09,26,11,28,17.30
2006,09,26,11,29,17.30
2006,09,26,11,30,17.20
2006,09,26,11,31,17.20
2006,09,26,11,32,17.30
2006,09,26,11,33,17.40
2006,09,26,11,34,17.30
2006,09,26,11,35,17.30
2006,09,26,11,36,17.40
2006,09,26,11,37,17.40
2006,09,26,11,38,17.40
2006,09,26,11,39,17.40
2006,09,26,11,40,17.30
2006,09,26,11,41,17.20
2006,09,26,11,42,17.20
2006,09,26,11,43,17.20
2006,09,26,11,44,17.20
2006,09,26,11,45,17.20
2006,09,26,11,46,17.10
2006,09,26,11,47,17.10
2006,09,26,11,48,17.20
2006,09,26,11,49,17.30
2006,09,26,11,50,17.30
2006,09,26,11,51,17.30
2006,09,26,11,52,17.30
2006,09,26,11,53,17.30
2006,09,26,11,54,17.30
2006,09,26,11,55,17.20
2006,09,26,11,56,17.10
2006,09,26,11,57,17.20
2006,09,26,11,58,17.20
2006,09,26,11,59,17.10
2006,09,26,12,00,17.10
2006,09,26,12,01,17.10
2006,09,26,12,02,17.20
2006,09,26,12,03,17.30
2006,09,26,12,04,17.40
2006,09,26,12,05,17.40
2006,09,26,12,06,17.40
2006,09,26,12,07,17.50
2006,09,26,12,08,17.60
2006,09,26,12,09,17.60
2006,09,26,12,10,17.70
2006,09,26,12,11,17.80
2006,09,26,12,12,17.80
2006,09,26,12,13,17.80
2006,09,26,12,14,17.80
2006,09,26,12,15,17.80
2006,09,26,12,16,17.70
2006,09,26,12,17,17.70
2006,09,26,12,18,17.70
2006,09,26,12,19,17.70
2006,09,26,12,20,17.70
2006,09,26,12,21,17.60
2006,09,26,12,22,17.70
2006,09,26,12,23,17.70
2006,09,26,12,24,17.80
2006,09,26,12,25,17.80
2006,09,26,12,26,17.70
2006,09,26,12,27,17.70
2006,09,26,12,28,17.80
2006,09,26,12,29,17.80
2006,09,26,12,30,17.80
2006,09,26,12,31,17.80
2006,09,26,12,32,17.80
2006,09,26,12,33,17.70
2006,09,26,12,34,17.70
2006,09,26,12,35,17.60
2006,09,26,12,36,17.50
2006,09,26,12,37,17.50
2006,09,26,12,38,17.50
2006,09,26,12,39,17.40
2006,09,26,12,40,17.40
2006,09,26,12,41,17.30
2006,09,26,12,42,17.40
2006,09,26,12,43,17.40
2006,09,26,12,44,17.50
2006,09,26,12,45,17.50
2006,09,26,12,46,17.50
2006,09,26,12,47,17.40
2006,09,26,12,48,17.40
2006,09,26,12,49,17.30
2006,09,26,12,50,17.30
2006,09,26,12,51,17.40
2006,09,26,12,52,17.50
2006,09,26,12,53,17.60
2006,09,26,12,54,17.60
2006,09,26,12,55,17.50
2006,09,26,12,56,17.50
2006,09,26,12,57,17.40
2006,09,26,12,58,17.40
2006,09,26,12,59,17.40
2006,09,26,13,00,17.30
2006,09,26,13,01,17.30
2006,09,26,13,02,17.30
2006,09,26,13,03,17.40
2006,09,26,13,04,17.50
2006,09,26,13,05,17.60
2006,09,26,13,06,17.60
2006,09,26,13,07,17.60
2006,09,26,13,08,17.60
2006,09,26,13,09,17.70
2006,09,26,13,10,17.80
2006,09,26,13,11,17.70
2006,09,26,13,12,17.70
2006,09,26,13,13,17.80
2006,09,26,13,14,17.80
2006,09,26,13,15,17.80
2006,09,26,13,16,17.80
2006,09,26,13,17,17.80
2006,09,26,13,18,17.70
2006,09,26,13,19,17.70
2006,09,26,13,20,17.70
2006,09,26,13,21,17.80
2006,09,26,13,22,17.80
2006,09,26,13,23,17.80
2006,09,26,13,24,17.80
2006,09,26,13,25,17.80
2006,09,26,13,26,17.70
2006,09,26,13,27,17.80
2006,09,26,13,28,17.70
2006,09,26,13,29,17.70
2006,09,26,13,30,17.80
2006,09,26,13,31,17.90
2006,09,26,13,32,17.90
2006,09,26,13,33,18.00
2006,09,26,13,34,18.00
2006,09,26,13,35,18.10
2006,09,26,13,36,18.20
2006,09,26,13,37,18.20
2006,09,26,13,38,18.30
2006,09,26,13,39,18.30
2006,09,26,13,40,18.30
2006,09,26,13,41,18.40
2006,09,26,13,42,18.50
2006,09,26,13,43,18.50
2006,09,26,13,44,18.60
2006,09,26,13,45,18.70
2006,09,26,13,46,18.70
2006,09,26,13,47,18.60
2006,09,26,13,48,18.60
2006,09,26,13,49,18.70
2006,09,26,13,50,18.70
2006,09,26,13,51,18.70
2006,09,26,13,52,18.80
2006,09,26,13,53,18.80
2006,09,26,13,54,18.90
2006,09,26,13,55,18.90
2006,09,26,13,56,18.90
2006,09,26,13,57,18.90
2006,09,26,13,58,18.90
2006,09,26,13,59,18.90
2006,09,26,14,00,19.00
2006,09,26,14,01,19.10
2006,09,26,14,02,19.20
2006,09,26,14,03,19.20
2006,09,26,14,04,19.30
2006,09,26,14,05,19.30
2006,09,26,14,06,19.30
2006,09,26,14,07,19.30
2006,09,26,14,08,19.40
2006,09,26,14,09,19.50
2006,09,26,14,10,19.50
2006,09,26,14,11,19.60
2006,09,26,14,12,19.60
2006,09,26,14,13,19.60
2006,09,26,14,14,19.60
2006,09,26,14,15,19.60
2006,09,26,14,16,19.70
2006,09,26,14,17,19.70
2006,09,26,14,18,19.80
2006,09,26,14,19,19.80
2006,09,26,14,20,19.80
2006,09,26,14,21,19.90
2006,09,26,14,22,19.90
2006,09,26,14,23,19.90
2006,09,26,14,24,19.90
2006,09,26,14,25,20.00
2006,09,26,14,26,20.00
2006,09,26,14,27,20.00
2006,09,26,14,28,20.00
2006,09,26,14,29,20.00
2006,09,26,14,30,19.90
2006,09,26,14,31,19.80
2006,09,26,14,32,19.80
2006,09,26,14,33,19.80
2006,09,26,14,34,19.80
2006,09,26,14,35,19.80
2006,09,26,14,36,19.90
2006,09,26,14,37,19.90
2006,09,26,14,38,19.80
2006,09,26,14,39,19.70
2006,09,26,14,40,19.50
2006,09,26,14,41,19.40
2006,09,26,14,42,19.50
2006,09,26,14,43,19.50
2006,09,26,14,44,19.60
2006,09,26,14,45,19.70
2006,09,26,14,46,19.80
2006,09,26,14,47,19.80
2006,09,26,14,48,19.80
2006,09,26,14,49,19.90
2006,09,26,14,50,19.90
2006,09,26,14,51,20.00
2006,09,26,14,52,20.00
2006,09,26,14,53,20.00
2006,09,26,14,54,20.00
2006,09,26,14,55,20.00
2006,09,26,14,56,20.10
2006,09,26,14,57,20.10
2006,09,26,14,58,20.20
2006,09,26,14,59,20.20
2006,09,26,15,00,20.10
2006,09,26,15,01,20.10
2006,09,26,15,02,20.10
2006,09,26,15,03,20.10
2006,09,26,15,04,20.10
2006,09,26,15,05,20.10
2006,09,26,15,06,20.10
2006,09,26,15,07,20.10
2006,09,26,15,08,20.20
2006,09,26,15,09,20.30
2006,09,26,15,10,20.40
2006,09,26,15,11,20.50
2006,09,26,15,12,20.50
2006,09,26,15,13,20.40
2006,09,26,15,14,20.50
2006,09,26,15,15,20.50
2006,09,26,15,16,20.40
2006,09,26,15,17,20.30
2006,09,26,15,18,20.30
2006,09,26,15,19,20.30
2006,09,26,15,20,20.30
2006,09,26,15,21,20.30
2006,09,26,15,22,20.30
2006,09,26,15,23,20.30
2006,09,26,15,24,20.40
2006,09,26,15,25,20.40
2006,09,26,15,26,20.50
2006,09,26,15,27,20.50
2006,09,26,15,28,20.50
2006,09,26,15,29,20.50
2006,09,26,15,30,20.60
2006,09,26,15,31,20.70
2006,09,26,15,32,20.60
2006,09,26,15,33,20.70
2006,09,26,15,34,20.70
2006,09,26,15,35,20.70
2006,09,26,15,36,20.80
2006,09,26,15,37,20.90
2006,09,26,15,38,20.90
2006,09,26,15,39,20.90
2006,09,26,15,40,20.90
2006,09,26,15,41,21.00
2006,09,26,15,42,21.00
2006,09,26,15,43,21.00
2006,09,26,15,44,21.10
2006,09,26,15,45,21.10
2006,09,26,15,46,21.10
2006,09,26,15,47,21.10
2006,09,26,15,48,21.20
2006,09,26,15,49,21.20
2006,09,26,15,50,21.30
2006,09,26,15,51,21.30
2006,09,26,15,52,21.40
2006,09,26,15,53,21.30
2006,09,26,15,54,21.30
2006,09,26,15,55,21.40
2006,09,26,15,56,21.40
2006,09,26,15,57,21.50
2006,09,26,15,58,21.40
2006,09,26,15,59,21.40
2006,09,26,16,00,21.40
2006,09,26,16,01,21.40
2006,09,26,16,02,21.50
2006,09,26,16,03,21.50
2006,09,26,16,04,21.50
2006,09,26,16,05,21.50
2006,09,26,16,06,21.50
2006,09,26,16,07,21.40
2006,09,26,16,08,21.40
2006,09,26,16,09,21.30
2006,09,26,16,10,21.40
2006,09,26,16,11,21.50
2006,09,26,16,12,21.50
2006,09,26,16,13,21.60
2006,09,26,16,14,21.60
2006,09,26,16,15,21.60
2006,09,26,16,16,21.60
2006,09,26,16,17,21.50
2006,09,26,16,18,21.40
2006,09,26,16,19,21.30
2006,09,26,16,20,21.30
2006,09,26,16,21,21.30
2006,09,26,16,22,21.30
2006,09,26,16,23,21.30
2006,09,26,16,24,21.30
2006,09,26,16,25,21.40
2006,09,26,16,26,21.40
2006,09,26,16,27,21.40
2006,09,26,16,28,21.40
2006,09,26,16,29,21.40
2006,09,26,16,30,21.30
2006,09,26,16,31,21.30
2006,09,26,16,32,21.20
2006,09,26,16,33,21.20
2006,09,26,16,34,21.10
2006,09,26,16,35,21.10
2006,09,26,16,36,21.00
2006,09,26,16,37,21.00
2006,09,26,16,38,20.90
2006,09,26,16,39,21.00
2006,09,26,16,40,20.90
2006,09,26,16,41,20.90
2006,09,26,16,42,20.90
2006,09,26,16,43,20.90
2006,09,26,16,44,20.90
2006,09,26,16,45,20.90
2006,09,26,16,46,20.90
2006,09,26,16,47,20.80
2006,09,26,16,48,20.80
2006,09,26,16,49,20.80
2006,09,26,16,50,20.80
2006,09,26,16,51,20.80
2006,09,26,16,52,20.80
2006,09,26,16,53,20.80
2006,09,26,16,54,20.90
2006,09,26,16,55,20.90
2006,09,26,16,56,20.80
2006,09,26,16,57,20.80
2006,09,26,16,58,20.80
2006,09,26,16,59,20.90
2006,09,26,17,00,20.90
2006,09,26,17,01,20.90
2006,09,26,17,02,21.00
2006,09,26,17,03,21.00
2006,09,26,17,04,21.00
2006,09,26,17,05,20.90
2006,09,26,17,06,20.90
2006,09,26,17,07,20.90
2006,09,26,17,08,21.00
2006,09,26,17,09,21.00
2006,09,26,17,10,21.00
2006,09,26,17,11,21.00
2006,09,26,17,12,21.00
2006,09,26,17,13,21.00
2006,09,26,17,14,21.00
2006,09,26,17,15,21.00
2006,09,26,17,16,21.00
2006,09,26,17,17,20.90
2006,09,26,17,18,20.90
2006,09,26,17,19,20.90